Weather History for Scottsbluff, NE

Change the Weather History Date:

Sunday, October 9, 2011

  Actual Average Record
Temperature  
Mean Temperature 44 °F 51 °F  
Max Temperature 46 °F 67 °F 92 °F (1910)
Min Temperature 41 °F 35 °F 18 °F (1970)
Degree Days  
Heating Degree Days 21 14  
Month to date heating degree days 50 112  
Since 1 July heating degree days 160 291  
Cooling Degree Days 0 0  
Month to date cooling degree days 10 0  
Year to date cooling degree days 932 723  
Moisture  
Dew Point 44 °F    
Average Humidity 93    
Maximum Humidity 100    
Minimum Humidity 86    
Precipitation  
Precipitation 0.29 in 0.04 in 0.68 in (1909)
Month to date precipitation 1.34 0.36  
Year to date precipitation 18.01 13.84  
Snow  
Snow 0.00 in 0.10 in 3.30 in (2009)
Month to date snowfall 0.0 0.5  
Since 1 July snowfall 0.0 1.0  
Snow Depth 0.00 in    
Sea Level Pressure  
Sea Level Pressure 30.12 in    
Wind  
Wind Speed 7 mph (NW)    
Max Wind Speed 15 mph    
Max Gust Speed 22 mph    
Visibility 8 miles    
Events Rain    
T = Trace of Precipitation, MM = Missing Value Source: NWS Daily Summary

Daily Weather History Graph

Daily Weather History Graph

Search for Another Location

Airport:

Trip Planner

Search our weather history database for the weather conditions in past years. The results will help you decide how hot, cold, wet, or windy it might be!

Date:

Astronomy

Oct. 09, 2011 Rise Set
Actual Time 6:59 AM MDT 6:22 PM MDT
Civil Twilight 6:31 AM MDT 6:50 PM MDT
Nautical Twilight 5:59 AM MDT 7:23 PM MDT
Astronomical Twilight 5:27 AM MDT 7:55 PM MDT
Moon 5:01 PM MDT (10/9) 4:45 AM MDT (10/9)
Length of Visible Light 12h 18m
Length of Day
11h 23m
Waxing Gibbous, 95% of the Moon is Illuminated
Oct 9
Waxing Gibbous
Oct 11
Full
Oct 19
Last Quarter
Oct 26
New
Nov 2
First Quarter

Hourly Weather History & Observations

Time (MDT) Temp. Windchill Dew Point Humidity Pressure Visibility Wind Dir Wind Speed Gust Speed Precip Events Conditions
12:53 AM 44.6 °F 38.8 °F 41.0 °F 87% 30.14 in 6.0 mi NW 11.5 mph 20.7 mph N/A Rain Light Rain
1:53 AM 44.1 °F 38.6 °F 42.1 °F 93% 30.14 in 10.0 mi NW 10.4 mph - 0.11 in Rain Light Rain
2:51 AM 44.6 °F 38.8 °F 44.6 °F 100% 30.15 in 6.0 mi WNW 11.5 mph - 0.06 in Rain Light Rain
2:53 AM 44.1 °F 38.6 °F 44.1 °F 100% 30.15 in 5.0 mi WNW 10.4 mph - 0.06 in Rain Light Rain
3:53 AM 44.1 °F 38.1 °F - N/A% 30.15 in 10.0 mi WNW 11.5 mph - 0.02 in Rain Light Rain
4:53 AM 43.0 °F 36.8 °F - N/A% 30.17 in 9.0 mi WNW 11.5 mph - 0.01 in Rain Light Rain
5:20 AM 42.8 °F 37.5 °F - N/A% 30.16 in 10.0 mi NW 9.2 mph - 0.00 in   Overcast
5:35 AM 42.8 °F 36.2 °F - N/A% 30.16 in 10.0 mi NW 12.7 mph - 0.00 in   Overcast
5:53 AM 44.1 °F 39.5 °F - N/A% 30.17 in 10.0 mi NW 8.1 mph - 0.00 in   Overcast
6:39 AM 42.8 °F 38.0 °F - N/A% 30.17 in 10.0 mi WNW 8.1 mph - 0.00 in   Overcast
6:53 AM 43.0 °F 36.8 °F - N/A% 30.17 in 10.0 mi WNW 11.5 mph 16.1 mph 0.00 in Rain Light Rain
7:44 AM 42.8 °F 38.6 °F - N/A% 30.16 in 4.0 mi WNW 6.9 mph - 0.02 in Rain Rain
7:53 AM 43.0 °F 39.5 °F - N/A% 30.17 in 4.0 mi WNW 5.8 mph - 0.04 in Rain Rain
8:03 AM 42.8 °F 38.6 °F 42.8 °F 100% 30.15 in 4.0 mi NW 6.9 mph - 0.01 in Rain Light Rain
8:53 AM 42.1 °F 37.7 °F - N/A% 30.17 in 10.0 mi WNW 6.9 mph - 0.04 in Rain Light Rain
9:13 AM 42.8 °F 40.1 °F - N/A% 30.17 in 10.0 mi WNW 4.6 mph - 0.00 in   Overcast
9:53 AM 44.1 °F 39.5 °F - N/A% 30.16 in 10.0 mi NNW 8.1 mph - 0.00 in   Overcast
10:53 AM 44.1 °F 40.1 °F - N/A% 30.15 in 7.0 mi NW 6.9 mph - N/A   Overcast
11:06 AM 44.6 °F 40.7 °F - N/A% 30.15 in 6.0 mi NW 6.9 mph - N/A   Haze
11:53 AM 44.1 °F 40.1 °F - N/A% 30.14 in 3.0 mi NW 6.9 mph - 0.00 in Rain Light Rain
12:00 PM 44.6 °F 41.4 °F - N/A% 30.13 in 3.0 mi NW 5.8 mph - 0.00 in Rain Light Rain
12:08 PM 44.6 °F 40.2 °F - N/A% 30.13 in 3.0 mi NNW 8.1 mph - 0.01 in Rain Light Rain
12:27 PM 44.6 °F 40.2 °F - N/A% 30.12 in 5.0 mi NW 8.1 mph - 0.01 in Rain Light Rain
12:42 PM 44.6 °F 40.2 °F - N/A% 30.12 in 6.0 mi NW 8.1 mph - 0.02 in   Haze
12:51 PM 44.6 °F 39.7 °F - N/A% 30.11 in 9.0 mi NW 9.2 mph - 0.02 in   Overcast
12:53 PM 45.0 °F 41.2 °F - N/A% 30.11 in 9.0 mi NW 6.9 mph - 0.02 in   Overcast
1:53 PM 45.0 °F 40.6 °F - N/A% 30.09 in 10.0 mi NW 8.1 mph - N/A   Overcast
2:53 PM 45.0 °F 40.1 °F - N/A% 30.08 in 7.0 mi NW 9.2 mph - N/A   Overcast
3:22 PM 44.6 °F 39.7 °F - N/A% 30.08 in 8.0 mi NW 9.2 mph - N/A   Overcast
3:31 PM 44.6 °F 40.2 °F - N/A% 30.08 in 6.0 mi NW 8.1 mph - N/A   Haze
3:53 PM 45.0 °F 40.1 °F - N/A% 30.07 in 5.0 mi NW 9.2 mph - 0.00 in   Haze
4:11 PM 44.6 °F 39.7 °F - N/A% 30.07 in 9.0 mi NW 9.2 mph - N/A   Overcast
4:36 PM 44.6 °F 40.7 °F 44.6 °F 100% 30.07 in 9.0 mi NW 6.9 mph - N/A   Overcast
4:53 PM 46.0 °F 43.1 °F 46.0 °F 100% 30.06 in 10.0 mi NW 5.8 mph - N/A   Overcast
5:24 PM 46.4 °F 43.5 °F 46.4 °F 100% 30.06 in 10.0 mi North 5.8 mph - N/A   Overcast
5:53 PM 46.0 °F - 46.0 °F 100% 30.06 in 10.0 mi Calm Calm - N/A   Overcast
6:53 PM 46.0 °F - 43.0 °F 89% 30.05 in 10.0 mi Calm Calm - N/A   Overcast
7:53 PM 45.0 °F - 43.0 °F 93% 30.06 in 10.0 mi Calm Calm - N/A   Overcast
8:53 PM 44.1 °F 42.5 °F 43.0 °F 96% 30.06 in 10.0 mi South 3.5 mph - N/A   Overcast
9:53 PM 44.1 °F 42.5 °F 43.0 °F 96% 30.04 in 10.0 mi South 3.5 mph - N/A   Overcast
10:53 PM 44.1 °F 42.5 °F 42.1 °F 93% 30.04 in 10.0 mi SSE 3.5 mph - N/A   Overcast
11:53 PM 43.0 °F 41.3 °F 42.1 °F 97% 30.01 in 10.0 mi SE 3.5 mph - N/A   Scattered Clouds